Find Kuiper-00191

NORAD ID: 67143 Int'l Des: 2025-301 Owner: KUIP Country: US Constellation: amazon-leo operational
LEOCIRCULARSTARLINK_TYPE

实时位置

正在加载3D地球...

关于 Kuiper-00191

正在加载描述...

即将过境

Passes for default location (London). Set your location on the main map for personalized predictions.

高度历史

Loading altitude history...

两行轨道根数

1 67143U 25301L 26125.47726527 .00003110 00000-0 43662-3 0 9997
2 67143 51.8990 182.0300 0000350 78.2327 281.8674 14.79943363 22061
Epoch: May 5, 2026 • Age: 10 hours

当前状态

高度 631.5 km
速度 7.54 km/s
星下点 -7.51°S, 6.44°W
发射日期 Dec 16, 2025
运行时间 0.3 years
类型 internet

技术详情

分类 Payload
质量 490.00 kg
干质量 490.00 kg
总质量 490.00 kg
长度 1.80 m
直径 0.70 m
跨度 5.00 m
形状 Box + 2 pan
制造商 KUIP
平台类型 Kuiper
阶段状态 In Orbit
所有者/国家 KUIP/US

Most Searched